Location: Unspecified
(0.0000°N, 0.0000°E)
Time: 07:53:51
(UTC+00:00)

ATLAS 5 CENTAUR DEB - Pass Details

Date: 18 December 2025
Orbit: 8806 x 35657 km, 13.3° (Epoch: 18 January)

Event Time Altitude Azimuth Distance (km) Brightness Sun altitude
Rises 22:11:58 0° 257° (WSW) 14,290 ? -55.5°
Reaches altitude 10° 22:20:30 10° 258° (WSW) 13,780 ? -57.0°
Maximum altitude 00:19:45 79° 334° (NNW) 22,853 ? -65.9°
Drops below altitude 10° 11:01:42 10° 105° (ESE) 13,058 ? 63.1°
Sets 11:09:53 0° 105° (ESE) 13,851 ? 64.0°
